Overview Statistics Trail Chart Weather Telemetry Raw packets
 

This is the latest recevied weather packets stored in our database for station/object W6MAF. If no packets are shown the sender has not sent any weather packets the latest 10 day(s).

<< 11 12 13 14 15 16 17 >>
Time Temp. Humidity Pressure Rain* Wind** Luminosity Snow
1788597515 15° C 32% - 0 mm 5.36 m/s, 204° - -
1788597217 15° C 32% - 0 mm 5.36 m/s, 203° - -
1788596920 15° C 31% - 0 mm 4.02 m/s, 212° - -
1788596622 15.56° C 32% - 0 mm 3.58 m/s, 208° - -
1788596321 15.56° C 32% - 0 mm 4.47 m/s, 197° - -
1788596023 15.56° C 32% - 0 mm 4.02 m/s, 201° - -
1788595726 15.56° C 32% - 0 mm 4.47 m/s, 210° - -
1788595428 16.11° C 32% - 0 mm 4.02 m/s, 197° - -
1788595130 16.67° C 30% - 0 mm 4.02 m/s, 203° - -
1788594833 16.67° C 28% - 0 mm 4.47 m/s, 204° - -
1788594532 16.67° C 29% - 0 mm 6.26 m/s, 156° - -
1788594234 16.67° C 30% - 0 mm 5.36 m/s, 170° - -
1788593936 16.67° C 30% - 0 mm 5.81 m/s, 170° - -
1788593639 17.22° C 30% - 0 mm 4.47 m/s, 176° - -
1788593341 17.22° C 30% - 0 mm 4.47 m/s, 169° - -
1788593044 17.22° C 30% - 0 mm 5.81 m/s, 184° - -
1788592742 17.22° C 30% - 0 mm 6.26 m/s, 181° - -
1788592445 17.22° C 30% - 0 mm 6.71 m/s, 179° - -
1788592147 17.22° C 30% - 0 mm 7.15 m/s, 174° - -
1788591551 17.78° C 30% - 0 mm 6.71 m/s, 167° - -
1788591254 17.78° C 29% - 0 mm 6.26 m/s, 177° - -
1788590953 17.78° C 30% - 0 mm 8.49 m/s, 201° - -
1788590655 17.78° C 30% - 0 mm 8.05 m/s, 173° - -
1788590357 17.78° C 30% - 0 mm 7.6 m/s, 153° - -
1788590060 17.78° C 30% - 0 mm 8.49 m/s, 187° - -

* Rain latest hour (hover to see other rain measurements)
** Current wind speed in m/s (hover to see current wind gust speed)